Showing default

JILIN-01-06, 43024

Orbit data source: Space-Track

JILIN-01-06, 43024 is a payload satellite owned by Changguang WJ (CN) in SSO that was launched on Tue, 21 Nov 2017 UTC via a CHANG ZHENG 6 launch vehicle from the Taiyaun Space Center, China (TSC). Payload-class satellites include a variety of spacecraft equipped with specific instruments for various scientific and technological missions. These include communications satellites like Starlink; space stations such as the ISS; scientific satellites like the Hubble; Earth observation satellites from companies like Planet Labs, Umbra, and HawkEye 360; GPS; miniature CubeSats for education and research; and military/defense satellites.

Loading next visibility...
Identifier
43024, 2017-074C
Orbit
SSO
Country
Flag of CNCN / PRC
Related business
Manufacturer
HARB/CIOMP
Mission
Operational Commercial Imaging
Bus & Motor
JL-1, Unknown motor
Mass
95 kg wet, 95 kg dry
Launch date (UTC)
2017-11-21 (9 years ago)
Launch vehicle
CHANG ZHENG 6
Launch site
Taiyaun Space Center, China (TSC)
Object type
Payload
Rocket body
Debris
Shape & HBR
Box + 2 Pan, 0.8 m
Radar Cross Section
2.000 m², Medium (>0.1 m² and < 1m²)

Expand to show TLE details & history
Last TLE update: 2 days ago

TLE from 2 days ago
0 JILIN-01-06
1 43024U 17074C   26171.42018513  .00005153  00000-0  16045-3 0  9996
2 43024  97.4790 274.6237 0005962 217.2758 142.8072 15.33724295474332
Epoch: 2026-06-20T10:05Z
TLE epoch observation values (Epoch: 2026-06-20T10:05:03.995Z)
Latitude
0.00007°
Longitude
-145.27802°
Altitude
471.071 km
Speed
7.629 km/s
True Right ascension
18h 18m 29s
True Declination
0° 00' 00"
Sunlit
Object was in full shadow at epoch
Visualization orbit readout
Latitude
Unknown
Longitude
Unknown
Altitude
Unknown
Speed
Unknown
Apparent Right ascension
Unknown
Apparent Declination
Unknown
Sunlit
N/A
Visualization observer readout
Local Sidereal Time
00:51:29
Azimuth
Unknown
Elevation
Unknown
Doppler factor
Unknown
Orbital elements
Apogee altitude
465.741 km
Perigee altitude
457.585 km
Semi-major axis
6,839.8 km
Eccentricity
0.0006
Inclination
97.479°
RAAN
274.6237°
Arg. of periapsis
217.2758°
True anomaly
142.84847°
Mean anomaly
142.8072°
Eccentric anomaly
142.82784°
Mean motion
3.83688 °/min
Orbital period
93.83 mins
BSTAR
0.00016045
Loading maneuver chart data...
Computing Atmospheric mass density...
Loading historical data...
Loading historical data...
Loading historical data...
Loading historical data...
Loading historical data...
Loading historical data...
Loading historical data...
Other satellites on launch #74 in the year 2017 (2017-11-21 UTC)

Documentation

Showing up to 5 results
|